Location: Cheyres
(46.8153°N, 6.7877°E)
Time: 01:19:50
(UTC+00:00)

Cosmos 2315 Rocket - Pass Details

Date: 11 May 2021
Orbit: 965 x 1003 km, 82.9° (Epoch: 23 June)

Event Time Altitude Azimuth Distance (km) Brightness Sun altitude
Rises 19:40:44 0° 166° (SSE) 3,708 6.6 -7.3°
Reaches altitude 10° 19:43:21 10° 161° (SSE) 2,766 5.9 -7.6°
Maximum altitude 19:49:21 46° 90° (E) 1,318 4.4 -8.4°
Drops below altitude 10° 19:55:24 10° 19° (NNE) 2,785 6.7 -9.3°
Sets 19:58:02 0° 14° (NNE) 3,738 7.4 -9.6°
